Regional Weather Roundup
Issued by NWS Memphis, TN

Home | Current Version | Previous Version | Text Only | Print | Product List | Glossary On
Versions: 1 2 3 4 5 6 7 8 9 10 11 12 13 14 15 16 17 18 19 20 21 22 23 24 25 26 27 28 29 30 31 32 33 34 35 36 37 38 39 40 41 42 43 44 45 46 47 48 49 50
000
ASUS44 KMEG 020810
RWRMEG
MEMPHIS CWA HOURLY WEATHER ROUNDUP
NATIONAL WEATHER SERVICE MEMPHIS TN
200 AM CST MON MAR 02 2015

...WEST TENNESSEE...

CITY           SKY/WX    TMP DP  RH WIND       PRES   REMARKS
MEMPHIS INTL   CLOUDY    37  34  89 NE12      30.41R WCI  29
NWS MEMPHIS      N/A     36 N/A N/A MISG        N/A
JACKSON        CLOUDY    36  33  89 N12       30.42R WCI  28
LEXINGTON      CLOUDY    36  34  93 N7        30.38S WCI  30
SAVANNAH       CLOUDY    39  39 100 N8        30.37S WCI  34
DYERSBURG      CLOUDY    34  19  55 N10       30.47R WCI  26
UNION CITY     CLOUDY    30  28  93 N8        30.44S WCI  23
PARIS          CLOUDY    28  28 100 N13       30.43R WCI  18


...EASTERN ARKANSAS...

CITY           SKY/WX    TMP DP  RH WIND       PRES   REMARKS
JONESBORO      CLOUDY    34  30  85 N10       30.45S WCI  26
WEST MEMPHIS   CLOUDY    35  34  96 NE15      30.41F WCI  25
BATESVILLE     CLOUDY    36  28  75 NW3       30.46S
NEWPORT        CLOUDY    35  32  89 N10       30.48R WCI  27
WALNUT RIDGE   CLOUDY    34  27  75 N12       30.47R WCI  25
BLYTHEVILLE    CLOUDY    33  30  88 N16       30.46R WCI  23
SEARCY         CLOUDY    37  34  89 N14       30.45S WCI  28
STUTTGART      CLOUDY    37  34  87 N18       30.41S WCI  27
PINE BLUFF     CLOUDY    38  37  97 N10       30.41F WCI  31
MONTICELLO     LGT RAIN  39  37  92 NE9       30.38R FOG     WCI  33


...NORTH MISSISSIPPI...

CITY           SKY/WX    TMP DP  RH WIND       PRES   REMARKS
TUPELO         CLOUDY    48  47  96 NE14      30.34S FOG
OXFORD         CLOUDY    39  39 100 N7        30.38R FOG     WCI  34
OLIVE BRANCH   CLOUDY    34  34 100 N9        30.41R WCI  26
TUNICA         CLOUDY    37  36  93 N14       30.41S WCI  29
CLARKSDALE     CLOUDY    37  37 100 N14       30.40S WCI  29
CORINTH        CLOUDY    41  39  93 N6G12     30.36S
GREENWOOD        N/A    N/A N/A N/A MISG      30.33S
COLUMBUS       FOG       52  52 100 CALM      30.31F VSB 1
STARKVILLE     DRZL/FOG  52  52 100 CALM      30.31F VSB 1/2
GOLDEN TRIANGL CLOUDY    52  50  93 CALM      30.30F VSB 1/2


...SOUTHEAST MISSOURI...

CITY           SKY/WX    TMP DP  RH WIND       PRES   REMARKS
WEST PLAINS    PTCLDY    26  21  81 NE7       30.45S WCI  18
POPLAR BLUFF   CLEAR     31  22  69 N13       30.47S WCI  21
CAPE GIRARDEAU CLEAR     30  25  81 N10       30.49R WCI  21


...NORTHWEST ALABAMA...

CITY           SKY/WX    TMP DP  RH WIND       PRES   REMARKS
MUSCLE SHOALS  CLOUDY    51  49  92 CALM      30.32F FOG


...MIDDLE TENNESSEE...

CITY           SKY/WX    TMP DP  RH WIND       PRES   REMARKS
NASHVILLE      CLOUDY    36  34  92 N9        30.39S WCI  29
CLARKSVILLE    CLOUDY    32  30  92 N10       30.43R WCI  24
COLUMBIA       CLOUDY   N/A N/A N/A N8        30.34F


...WESTERN KENTUCKY...

CITY           SKY/WX    TMP DP  RH WIND       PRES   REMARKS
PADUCAH        PTCLDY    30  24  78 N14       30.47R WCI  19
FORT CAMPBELL  CLOUDY    32  28  86 N6        30.43R WCI  26


...CENTRAL ARKANSAS...

CITY           SKY/WX    TMP DP  RH WIND       PRES   REMARKS
LITTLE ROCK    CLOUDY    39  34  82 N8        30.43R WCI  33


SKY/WX REPORTED AS FAIR MEANS FEW OR NO CLOUDS BELOW
12 THOUSAND FEET.




USA.gov is the U.S. government's official web portal to all federal, state and local government web resources and services.